When you browse on this site, cookies collect data to enhance your experience and personalize the content and advertising you see.
Visit our Privacy Policy to learn more. By continuing to use the site, you agree to this use of cookies and data.
  • In Hungary
  • List of Countries
  • For 7 days
  • Water Temperature
  • Weather Map
  • News
  • Weather Widgets
  • user-avatar
    Login

    Hourly Weather Luzhino

    Today, 16 December, Monday

    Time Temperature Precipitation Wind Pressure Humidity
    00:00 -1°C° 0 mm 4 mps 737 mmHg 92%
    01:00 -1°C° 0 mm 4 mps 737 mmHg 92%
    02:00 0°C° 0 mm 5 mps 737 mmHg 94%
    03:00 0°C° 0 mm 5 mps 736 mmHg 93%
    04:00 0°C° 0 mm 5 mps 736 mmHg 92%
    05:00 +1°C° 0 mm 5 mps 736 mmHg 91%
    06:00 +1°C° 0 mm 5 mps 736 mmHg 88%
    07:00 +1°C° 0 mm 6 mps 736 mmHg 86%
    08:00 +1°C° 0 mm 6 mps 736 mmHg 83%
    09:00 +1°C° 0 mm 6 mps 736 mmHg 81%
    10:00 0°C° 0 mm 7 mps 737 mmHg 79%
    11:00 0°C° 0 mm 7 mps 737 mmHg 77%
    12:00 +2°C° 0.1 mm 7 mps 737 mmHg 79%
    13:00 +1°C° 0.1 mm 8 mps 738 mmHg 80%
    14:00 +1°C° 0.1 mm 8 mps 738 mmHg 82%
    15:00 +2°C° 0 mm 7 mps 739 mmHg 80%
    16:00 +2°C° 0 mm 7 mps 739 mmHg 78%
    17:00 +2°C° 0 mm 6 mps 740 mmHg 76%
    18:00 +1°C° 0 mm 6 mps 741 mmHg 78%
    19:00 +1°C° 0 mm 5 mps 741 mmHg 81%
    20:00 +1°C° 0 mm 5 mps 742 mmHg 83%
    21:00 0°C° 0 mm 5 mps 742 mmHg 86%
    22:00 0°C° 0 mm 4 mps 742 mmHg 89%
    23:00 -1°C° 0 mm 4 mps 743 mmHg 91%

    Tomorrow, 17 December, Tuesday

    Time Temperature Precipitation Wind Pressure Humidity
    00:00 -1°C° 0 mm 4 mps 743 mmHg 92%
    01:00 0°C° 0 mm 3 mps 743 mmHg 93%
    02:00 -1°C° 0 mm 3 mps 744 mmHg 94%
    03:00 0°C° 0 mm 3 mps 743 mmHg 93%
    04:00 0°C° 0 mm 3 mps 743 mmHg 93%
    05:00 0°C° 0 mm 3 mps 743 mmHg 92%
    06:00 0°C° 0 mm 3 mps 742 mmHg 90%
    07:00 0°C° 0 mm 3 mps 742 mmHg 89%
    08:00 0°C° 0 mm 4 mps 742 mmHg 88%
    09:00 0°C° 0.3 mm 4 mps 742 mmHg 90%
    10:00 0°C° 0.3 mm 4 mps 742 mmHg 92%
    11:00 +1°C° 0.3 mm 4 mps 742 mmHg 94%
    12:00 +1°C° 0.6 mm 4 mps 741 mmHg 94%
    13:00 +2°C° 0.6 mm 3 mps 741 mmHg 95%
    14:00 +2°C° 0.6 mm 3 mps 741 mmHg 95%
    15:00 +2°C° 0.4 mm 3 mps 741 mmHg 96%
    16:00 +2°C° 0.4 mm 3 mps 741 mmHg 96%
    17:00 +3°C° 0.4 mm 2 mps 741 mmHg 96%
    18:00 +3°C° 0 mm 2 mps 741 mmHg 96%
    19:00 +3°C° 0 mm 2 mps 742 mmHg 96%
    20:00 +3°C° 0 mm 2 mps 742 mmHg 97%
    21:00 +3°C° 0 mm 2 mps 742 mmHg 97%
    22:00 +3°C° 0 mm 2 mps 742 mmHg 97%
    23:00 +3°C° 0 mm 2 mps 742 mmHg 97%

    Day after tomorrow, 18 December, Wednesday

    Time Temperature Precipitation Wind Pressure Humidity
    00:00 +3°C° 0 mm 2 mps 742 mmHg 97%
    01:00 +3°C° 0 mm 2 mps 742 mmHg 97%
    02:00 +3°C° 0 mm 2 mps 742 mmHg 97%
    03:00 +3°C° 0 mm 2 mps 742 mmHg 97%
    04:00 +2°C° 0 mm 2 mps 742 mmHg 97%
    05:00 +1°C° 0 mm 3 mps 742 mmHg 96%
    06:00 +1°C° 0 mm 3 mps 741 mmHg 96%
    07:00 +2°C° 0 mm 3 mps 741 mmHg 95%
    08:00 +2°C° 0 mm 3 mps 741 mmHg 95%
    09:00 +2°C° 0 mm 3 mps 741 mmHg 94%
    10:00 +3°C° 0 mm 4 mps 741 mmHg 92%
    11:00 +3°C° 0 mm 4 mps 741 mmHg 91%
    12:00 +3°C° 0 mm 4 mps 740 mmHg 91%
    13:00 +3°C° 0 mm 4 mps 740 mmHg 92%
    14:00 +3°C° 0 mm 3 mps 740 mmHg 92%
    15:00 +3°C° 0 mm 4 mps 740 mmHg 93%
    16:00 +3°C° 0 mm 4 mps 739 mmHg 95%
    17:00 +1°C° 0 mm 4 mps 739 mmHg 96%
    18:00 +2°C° 0 mm 5 mps 739 mmHg 95%
    19:00 +2°C° 0 mm 5 mps 739 mmHg 94%
    20:00 +3°C° 0 mm 6 mps 739 mmHg 93%
    21:00 +3°C° 0 mm 6 mps 740 mmHg 91%
    22:00 +3°C° 0 mm 6 mps 740 mmHg 89%
    23:00 +3°C° 0 mm 6 mps 740 mmHg 87%

    19 December, Thursday

    Time Temperature Precipitation Wind Pressure Humidity
    00:00 +2°C° 0 mm 6 mps 741 mmHg 86%
    01:00 +2°C° 0 mm 6 mps 741 mmHg 85%
    02:00 +1°C° 0 mm 6 mps 742 mmHg 85%
    03:00 +1°C° 0 mm 6 mps 742 mmHg 82%
    04:00 +1°C° 0 mm 6 mps 742 mmHg 80%
    05:00 0°C° 0 mm 7 mps 742 mmHg 78%
    06:00 0°C° 0 mm 7 mps 743 mmHg 77%
    07:00 +2°C° 0 mm 6 mps 743 mmHg 77%
    08:00 +2°C° 0 mm 6 mps 743 mmHg 76%
    09:00 +2°C° 0 mm 6 mps 744 mmHg 76%
    10:00 +2°C° 0 mm 6 mps 744 mmHg 76%
    11:00 +2°C° 0 mm 6 mps 745 mmHg 76%
    12:00 +2°C° 0 mm 6 mps 745 mmHg 76%
    13:00 +1°C° 0 mm 6 mps 745 mmHg 77%
    14:00 +1°C° 0 mm 5 mps 746 mmHg 77%
    15:00 +1°C° 0 mm 5 mps 746 mmHg 81%
    16:00 0°C° 0 mm 4 mps 746 mmHg 84%
    17:00 0°C° 0 mm 3 mps 747 mmHg 88%
    18:00 0°C° 0 mm 3 mps 747 mmHg 90%
    19:00 -1°C° 0 mm 3 mps 748 mmHg 92%
    20:00 -1°C° 0 mm 2 mps 748 mmHg 94%
    21:00 -1°C° 0 mm 2 mps 748 mmHg 95%
    22:00 -2°C° 0 mm 2 mps 748 mmHg 95%
    23:00 -2°C° 0 mm 2 mps 748 mmHg 96%

    20 December, Friday

    Time Temperature Precipitation Wind Pressure Humidity
    00:00 -2°C° 0 mm 2 mps 748 mmHg 96%
    01:00 -2°C° 0 mm 2 mps 749 mmHg 96%
    02:00 -2°C° 0 mm 2 mps 749 mmHg 96%
    03:00 0°C° 0 mm 1 mps 749 mmHg 95%
    04:00 0°C° 0 mm 1 mps 749 mmHg 94%
    05:00 -1°C° 0 mm 0 mps 749 mmHg 93%
    06:00 -1°C° 0 mm 0 mps 748 mmHg 91%
    07:00 -1°C° 0 mm 0 mps 748 mmHg 90%
    08:00 -1°C° 0 mm 0 mps 748 mmHg 88%
    09:00 +1°C° 0 mm 1 mps 749 mmHg 84%
    10:00 +1°C° 0 mm 1 mps 749 mmHg 81%
    11:00 +2°C° 0 mm 1 mps 749 mmHg 77%
    12:00 +1°C° 0 mm 2 mps 748 mmHg 75%
    13:00 +1°C° 0 mm 2 mps 748 mmHg 74%
    14:00 +1°C° 0 mm 2 mps 748 mmHg 73%
    15:00 +1°C° 0 mm 2 mps 747 mmHg 72%
    16:00 -1°C° 0 mm 2 mps 747 mmHg 72%
    17:00 -1°C° 0 mm 3 mps 747 mmHg 71%
    18:00 -1°C° 0 mm 3 mps 747 mmHg 69%
    19:00 -1°C° 0 mm 3 mps 747 mmHg 67%
    20:00 -1°C° 0 mm 3 mps 746 mmHg 65%
    21:00 -1°C° 0 mm 4 mps 746 mmHg 64%
    22:00 -1°C° 0 mm 4 mps 746 mmHg 62%
    23:00 -1°C° 0 mm 4 mps 746 mmHg 61%

    21 December, Saturday

    Time Temperature Precipitation Wind Pressure Humidity
    00:00 -1°C° 0 mm 4 mps 745 mmHg 61%
    01:00 -1°C° 0 mm 4 mps 745 mmHg 60%
    02:00 -2°C° 0 mm 4 mps 745 mmHg 60%
    03:00 -2°C° 0 mm 4 mps 744 mmHg 59%
    04:00 -2°C° 0 mm 4 mps 744 mmHg 59%
    05:00 -2°C° 0 mm 4 mps 743 mmHg 58%
    06:00 -2°C° 0 mm 4 mps 743 mmHg 59%
    07:00 -2°C° 0 mm 4 mps 743 mmHg 59%
    08:00 -2°C° 0 mm 5 mps 743 mmHg 59%
    09:00 -2°C° 0 mm 5 mps 743 mmHg 57%
    10:00 -1°C° 0 mm 5 mps 743 mmHg 55%
    11:00 -1°C° 0 mm 5 mps 743 mmHg 52%
    12:00 -1°C° 0 mm 5 mps 743 mmHg 55%
    13:00 -1°C° 0 mm 5 mps 743 mmHg 57%
    14:00 -1°C° 0 mm 5 mps 742 mmHg 59%
    15:00 -1°C° 0 mm 5 mps 742 mmHg 62%
    16:00 -1°C° 0 mm 4 mps 742 mmHg 65%
    17:00 -1°C° 0 mm 4 mps 742 mmHg 69%
    18:00 -1°C° 0 mm 4 mps 742 mmHg 71%
    19:00 -1°C° 0 mm 4 mps 742 mmHg 73%
    20:00 -1°C° 0 mm 4 mps 742 mmHg 76%
    21:00 -1°C° 0 mm 4 mps 742 mmHg 78%
    22:00 -1°C° 0 mm 4 mps 742 mmHg 80%
    23:00 -1°C° 0 mm 4 mps 742 mmHg 82%
    Show more